Location: Ebendorf
(52.1827°N, 11.5706°E)
Time: 08:30:08
(UTC+00:00)

Cosmos 2228 - Pass Details

Date: 15 May 2021
Orbit: 589 x 617 km, 82.5° (Epoch: 23 June)

Event Time Altitude Azimuth Distance (km) Brightness Sun altitude
Rises 01:48:34 0° 351° (N) 2,847 7.2 -11.0°
Reaches altitude 10° 01:50:47 10° 354° (N) 1,943 6.3 -10.8°
Maximum altitude 01:55:03 65° 77° (ENE) 663 3.4 -10.4°
Drops below altitude 10° 01:59:20 10° 160° (SSE) 1,943 5.3 -10.0°
Sets 02:01:33 0° 163° (SSE) 2,846 6.1 -9.8°
